ENY9173 SBEG-KFLL

Flight info

Callsign ENY9173
Flight time 5h 6m
Altitude 38000
Route KIGER UM409 VUMPI UL795 LOGON/N0466F400 UL795 GELOG UL210 BORDO OLAHS3
Aircraft E75L/M-SDE3GILORVW/S

Departure

Time 2026-05-05 02:59
Airport Eduardo Gomes International Airport (SBEG)

Arrival

Time 2026-05-05 08:05
Airport Fort Lauderdale Hollywood International Airport (KFLL)
Time Latitude Longitude Altitude Speed Heading
2026-05-05 02:30 -3.03293 -60.04012 239 ft 0 kts 165°
2026-05-05 02:49 -3.03288 -60.04013 239 ft 2 kts 165°
2026-05-05 02:50 -3.03273 -60.04017 240 ft 2 kts 165°
2026-05-05 02:50 -3.03259 -60.04020 240 ft 2 kts 165°
2026-05-05 02:50 -3.03245 -60.04024 240 ft 2 kts 165°
2026-05-05 02:50 -3.03230 -60.04025 240 ft 2 kts 197°
2026-05-05 02:51 -3.03217 -60.04018 241 ft 2 kts 226°
2026-05-05 02:51 -3.03210 -60.04007 241 ft 0 kts 251°
2026-05-05 02:51 -3.03209 -60.04001 240 ft 1 kts 256°
2026-05-05 02:51 -3.03209 -60.03999 240 ft 0 kts 256°
2026-05-05 02:52 -3.03209 -60.04000 240 ft 0 kts 256°
2026-05-05 02:53 -3.03211 -60.04007 240 ft 2 kts 256°
2026-05-05 02:53 -3.03220 -60.04045 241 ft 9 kts 257°
2026-05-05 02:53 -3.03247 -60.04139 241 ft 19 kts 255°
2026-05-05 02:54 -3.03282 -60.04279 241 ft 20 kts 253°
2026-05-05 02:54 -3.03325 -60.04416 241 ft 20 kts 259°
2026-05-05 02:54 -3.03356 -60.04561 240 ft 21 kts 266°
2026-05-05 02:54 -3.03363 -60.04717 237 ft 23 kts 258°
2026-05-05 02:55 -3.03445 -60.04854 234 ft 24 kts 224°
2026-05-05 02:55 -3.03565 -60.04977 231 ft 25 kts 245°
2026-05-05 02:55 -3.03618 -60.05152 228 ft 26 kts 256°
2026-05-05 02:55 -3.03665 -60.05338 225 ft 28 kts 258°
2026-05-05 02:56 -3.03689 -60.05533 223 ft 28 kts 264°
2026-05-05 02:56 -3.03686 -60.05740 218 ft 30 kts 269°
2026-05-05 02:56 -3.03687 -60.05929 218 ft 25 kts 270°
2026-05-05 02:56 -3.03689 -60.06095 221 ft 16 kts 263°
2026-05-05 02:57 -3.03717 -60.06155 224 ft 6 kts 223°
2026-05-05 02:57 -3.03750 -60.06174 226 ft 4 kts 198°
2026-05-05 02:57 -3.03795 -60.06174 228 ft 8 kts 170°
2026-05-05 02:57 -3.03852 -60.06150 228 ft 9 kts 112°
2026-05-05 02:58 -3.03854 -60.06117 228 ft 8 kts 91°
2026-05-05 02:58 -3.03854 -60.05792 228 ft 80 kts 90°
2026-05-05 02:58 -3.03854 -60.05053 243 ft 133 kts 89°
2026-05-05 02:58 -3.03847 -60.04025 466 ft 155 kts 90°
2026-05-05 02:59 -3.03799 -60.02905 868 ft 170 kts 75°
2026-05-05 02:59 -3.03006 -60.01884 1079 ft 196 kts 28°
2026-05-05 02:59 -3.01801 -60.01723 1455 ft 178 kts 358°
2026-05-05 02:59 -3.00493 -60.01778 1948 ft 195 kts
2026-05-05 03:00 -2.99088 -60.01716 2406 ft 212 kts
2026-05-05 03:00 -2.97568 -60.01561 2820 ft 220 kts 10°
2026-05-05 03:00 -2.96046 -60.01354 3143 ft 218 kts 12°
2026-05-05 03:00 -2.94561 -60.01122 3537 ft 219 kts 12°
2026-05-05 03:01 -2.93044 -60.00938 3926 ft 222 kts 357°
2026-05-05 03:01 -2.91632 -60.01617 4349 ft 235 kts 316°
2026-05-05 03:01 -2.90645 -60.02919 4800 ft 239 kts 309°
2026-05-05 03:01 -2.89667 -60.04293 5210 ft 242 kts 309°
2026-05-05 03:02 -2.88682 -60.05678 5603 ft 245 kts 309°
2026-05-05 03:02 -2.87652 -60.07123 5971 ft 268 kts 309°
2026-05-05 03:02 -2.86520 -60.08709 6352 ft 288 kts 309°
2026-05-05 03:02 -2.85299 -60.10316 6982 ft 295 kts 317°
2026-05-05 03:03 -2.83743 -60.11632 7720 ft 294 kts 329°
2026-05-05 03:03 -2.81993 -60.12716 8537 ft 293 kts 334°
2026-05-05 03:03 -2.80192 -60.13672 9264 ft 294 kts 336°
2026-05-05 03:03 -2.78345 -60.14582 9942 ft 298 kts 338°
2026-05-05 03:04 -2.76468 -60.15474 10571 ft 303 kts 338°
2026-05-05 03:04 -2.74532 -60.16380 11095 ft 310 kts 338°
2026-05-05 03:04 -2.72548 -60.17300 11549 ft 320 kts 338°
2026-05-05 03:04 -2.70473 -60.18260 12022 ft 329 kts 338°
2026-05-05 03:05 -2.68375 -60.19230 12496 ft 336 kts 338°
2026-05-05 03:05 -2.66223 -60.20225 13044 ft 341 kts 338°
2026-05-05 03:05 -2.64072 -60.21218 13631 ft 343 kts 338°
2026-05-05 03:05 -2.61880 -60.22230 14217 ft 346 kts 338°
2026-05-05 03:06 -2.59686 -60.23243 14774 ft 348 kts 338°
2026-05-05 03:06 -2.57492 -60.24256 15290 ft 351 kts 338°
2026-05-05 03:06 -2.55228 -60.25302 15816 ft 354 kts 338°
2026-05-05 03:06 -2.53003 -60.26329 16311 ft 357 kts 338°
2026-05-05 03:07 -2.50725 -60.27380 16818 ft 360 kts 338°
2026-05-05 03:07 -2.48435 -60.28437 17306 ft 362 kts 338°
2026-05-05 03:07 -2.46149 -60.29493 17766 ft 365 kts 338°
2026-05-05 03:07 -2.43803 -60.30576 18246 ft 368 kts 338°
2026-05-05 03:08 -2.41486 -60.31645 18694 ft 370 kts 338°
2026-05-05 03:08 -2.39141 -60.32727 19121 ft 373 kts 338°
2026-05-05 03:08 -2.36753 -60.33829 19541 ft 377 kts 338°
2026-05-05 03:08 -2.34355 -60.34936 19958 ft 379 kts 338°
2026-05-05 03:09 -2.31953 -60.36044 20352 ft 382 kts 337°
2026-05-05 03:09 -2.29540 -60.37158 20759 ft 385 kts 337°
2026-05-05 03:09 -2.27097 -60.38286 21144 ft 387 kts 337°
2026-05-05 03:09 -2.24621 -60.39428 21527 ft 390 kts 337°
2026-05-05 03:10 -2.22163 -60.40562 21901 ft 392 kts 337°
2026-05-05 03:10 -2.19662 -60.41716 22256 ft 395 kts 337°
2026-05-05 03:10 -2.17143 -60.42879 22616 ft 397 kts 337°
2026-05-05 03:10 -2.14655 -60.44027 22995 ft 399 kts 337°
2026-05-05 03:11 -2.12137 -60.45188 23354 ft 400 kts 337°
2026-05-05 03:11 -2.09561 -60.46377 23704 ft 403 kts 337°
2026-05-05 03:11 -2.07016 -60.47550 24045 ft 405 kts 337°
2026-05-05 03:11 -2.04457 -60.48730 24368 ft 408 kts 337°
2026-05-05 03:12 -2.01867 -60.49925 24679 ft 410 kts 337°
2026-05-05 03:12 -1.99265 -60.51126 24988 ft 413 kts 337°
2026-05-05 03:12 -1.96643 -60.52336 25309 ft 415 kts 337°
2026-05-05 03:12 -1.94011 -60.53550 25623 ft 417 kts 337°
2026-05-05 03:13 -1.91359 -60.54773 25933 ft 419 kts 337°
2026-05-05 03:13 -1.88708 -60.55995 26239 ft 421 kts 337°
2026-05-05 03:13 -1.86036 -60.57228 26555 ft 422 kts 337°
2026-05-05 03:13 -1.83367 -60.58458 26859 ft 424 kts 337°
2026-05-05 03:14 -1.80682 -60.59697 27162 ft 425 kts 337°
2026-05-05 03:14 -1.77990 -60.60938 27449 ft 426 kts 337°
2026-05-05 03:14 -1.75297 -60.62180 27704 ft 428 kts 337°
2026-05-05 03:14 -1.72574 -60.63435 27947 ft 431 kts 337°
2026-05-05 03:15 -1.69816 -60.64707 28193 ft 433 kts 337°
2026-05-05 03:15 -1.67077 -60.65970 28433 ft 434 kts 337°
2026-05-05 03:15 -1.64325 -60.67239 28670 ft 436 kts 337°
2026-05-05 03:15 -1.61571 -60.68508 28922 ft 437 kts 338°
2026-05-05 03:16 -1.58771 -60.69799 29189 ft 438 kts 337°
2026-05-05 03:16 -1.56017 -60.71069 29444 ft 440 kts 337°
2026-05-05 03:16 -1.53241 -60.72349 29699 ft 441 kts 337°
2026-05-05 03:16 -1.50436 -60.73642 29953 ft 442 kts 337°
2026-05-05 03:17 -1.47633 -60.74934 30208 ft 443 kts 337°
2026-05-05 03:17 -1.44832 -60.76225 30426 ft 444 kts 337°
2026-05-05 03:17 -1.41996 -60.77532 30647 ft 446 kts 337°
2026-05-05 03:17 -1.39174 -60.78834 30868 ft 447 kts 336°
2026-05-05 03:18 -1.36451 -60.80379 31055 ft 451 kts 327°
2026-05-05 03:18 -1.33995 -60.82351 31247 ft 455 kts 317°
2026-05-05 03:18 -1.31776 -60.84612 31487 ft 456 kts 316°
2026-05-05 03:18 -1.29530 -60.86876 31767 ft 455 kts 316°
2026-05-05 03:19 -1.25051 -60.91342 32387 ft 453 kts 316°
2026-05-05 03:19 -1.22815 -60.93567 32691 ft 452 kts 316°
2026-05-05 03:19 -1.20583 -60.95786 33031 ft 450 kts 316°
2026-05-05 03:20 -1.18390 -60.97968 33371 ft 449 kts 316°
2026-05-05 03:20 -1.16174 -61.00171 33686 ft 449 kts 316°
2026-05-05 03:20 -1.13933 -61.02401 34009 ft 448 kts 316°
2026-05-05 03:20 -1.11749 -61.04573 34356 ft 446 kts 316°
2026-05-05 03:21 -1.09528 -61.06781 34732 ft 444 kts 316°
2026-05-05 03:21 -1.07356 -61.08942 35063 ft 443 kts 316°
2026-05-05 03:21 -1.05172 -61.11113 35369 ft 443 kts 316°
2026-05-05 03:21 -1.03001 -61.13272 35646 ft 443 kts 316°
2026-05-05 03:22 -1.00795 -61.15465 35945 ft 442 kts 316°
2026-05-05 03:22 -0.98623 -61.17626 36221 ft 442 kts 316°
2026-05-05 03:22 -0.96452 -61.19785 36521 ft 441 kts 315°
2026-05-05 03:22 -0.94283 -61.21941 36830 ft 440 kts 315°
2026-05-05 03:23 -0.92105 -61.24108 37109 ft 439 kts 315°
2026-05-05 03:23 -0.89940 -61.26260 37388 ft 439 kts 315°
2026-05-05 03:23 -0.87764 -61.28424 37648 ft 438 kts 315°
2026-05-05 03:23 -0.85619 -61.30557 37890 ft 438 kts 315°
2026-05-05 03:24 -0.81245 -61.34906 37978 ft 446 kts 315°
2026-05-05 03:24 -0.76811 -61.39315 37979 ft 454 kts 315°
2026-05-05 03:25 -0.72271 -61.43828 37980 ft 462 kts 315°
2026-05-05 03:25 -0.67694 -61.48379 37972 ft 465 kts 315°
2026-05-05 03:26 -0.63109 -61.52937 37972 ft 466 kts 315°
2026-05-05 03:26 -0.58513 -61.57505 37972 ft 465 kts 315°
2026-05-05 03:27 -0.53924 -61.62068 37972 ft 465 kts 315°
2026-05-05 03:27 -0.49329 -61.66636 37970 ft 466 kts 315°
2026-05-05 03:28 -0.44735 -61.71202 37967 ft 466 kts 315°
2026-05-05 03:28 -0.40134 -61.75776 37960 ft 466 kts 315°
2026-05-05 03:29 -0.35546 -61.80337 37957 ft 465 kts 315°
2026-05-05 03:29 -0.30952 -61.84903 37956 ft 465 kts 315°
2026-05-05 03:30 -0.26345 -61.89482 37956 ft 467 kts 315°
2026-05-05 03:30 -0.21760 -61.94040 37957 ft 467 kts 315°
2026-05-05 03:31 -0.17139 -61.98633 37955 ft 468 kts 315°
2026-05-05 03:31 -0.12550 -62.03194 37954 ft 467 kts 316°
2026-05-05 03:32 -0.07923 -62.07793 37954 ft 467 kts 316°
2026-05-05 03:32 -0.03299 -62.12390 37953 ft 468 kts 316°
2026-05-05 03:33 0.01313 -62.16974 37955 ft 468 kts 316°
2026-05-05 03:33 0.05900 -62.21533 37963 ft 466 kts 316°
2026-05-05 03:34 0.10498 -62.26103 37969 ft 467 kts 316°
2026-05-05 03:34 0.15124 -62.30702 37969 ft 468 kts 316°
2026-05-05 03:35 0.19740 -62.35290 37970 ft 468 kts 316°
2026-05-05 03:35 0.24344 -62.39866 37968 ft 467 kts 316°
2026-05-05 03:36 0.28943 -62.44438 37969 ft 466 kts 316°
2026-05-05 03:36 0.33565 -62.49032 37967 ft 465 kts 316°
2026-05-05 03:37 0.38132 -62.53572 37960 ft 466 kts 316°
2026-05-05 03:37 0.42730 -62.58142 37962 ft 466 kts 316°
2026-05-05 03:38 0.47332 -62.62717 37967 ft 466 kts 316°
2026-05-05 03:38 0.51896 -62.67254 37962 ft 465 kts 316°
2026-05-05 03:39 0.56489 -62.71819 37969 ft 464 kts 316°
2026-05-05 03:39 0.61059 -62.76363 37967 ft 464 kts 316°
2026-05-05 03:40 0.65620 -62.80897 37970 ft 464 kts 316°
2026-05-05 03:40 0.70176 -62.85426 37966 ft 464 kts 316°
2026-05-05 03:41 0.74758 -62.89982 37972 ft 463 kts 316°
2026-05-05 03:41 0.79335 -62.94533 37971 ft 464 kts 316°
2026-05-05 03:42 0.83896 -62.99067 37973 ft 463 kts 316°
2026-05-05 03:42 0.88463 -63.03609 37981 ft 461 kts 316°
2026-05-05 03:43 0.93007 -63.08127 37981 ft 462 kts 316°
2026-05-05 03:43 0.97567 -63.12661 37984 ft 462 kts 316°
2026-05-05 03:44 1.02110 -63.17178 37984 ft 462 kts 316°
2026-05-05 03:44 1.06675 -63.21719 37984 ft 462 kts 316°
2026-05-05 03:45 1.11223 -63.26241 37982 ft 461 kts 316°
2026-05-05 03:45 1.15772 -63.30766 37984 ft 461 kts 316°
2026-05-05 03:46 1.20349 -63.35253 37978 ft 461 kts 320°
2026-05-05 03:46 1.25431 -63.39150 37984 ft 460 kts 323°
2026-05-05 03:47 1.30537 -63.43010 37986 ft 460 kts 323°
2026-05-05 03:47 1.35613 -63.46851 37986 ft 460 kts 323°
2026-05-05 03:48 1.40739 -63.50729 37984 ft 460 kts 323°
2026-05-05 03:48 1.45837 -63.54585 37985 ft 459 kts 323°
2026-05-05 03:49 1.50905 -63.58420 37986 ft 458 kts 323°
2026-05-05 03:49 1.55970 -63.62252 37990 ft 457 kts 323°
2026-05-05 03:50 1.61041 -63.66089 37990 ft 456 kts 323°
2026-05-05 03:50 1.66089 -63.69910 37993 ft 456 kts 323°
2026-05-05 03:51 1.71162 -63.73749 37993 ft 456 kts 323°
2026-05-05 03:51 1.76225 -63.77580 37995 ft 456 kts 323°
2026-05-05 03:52 1.81297 -63.81419 38007 ft 456 kts 323°
2026-05-05 03:52 1.86330 -63.85229 38019 ft 455 kts 323°
2026-05-05 03:53 1.91386 -63.89056 38031 ft 453 kts 323°
2026-05-05 03:53 1.96405 -63.92857 38042 ft 452 kts 323°
2026-05-05 03:54 2.01527 -63.96513 38061 ft 452 kts 327°
2026-05-05 03:54 2.06790 -63.99952 38048 ft 453 kts 327°
2026-05-05 03:55 2.12059 -64.03419 38064 ft 453 kts 327°
2026-05-05 03:55 2.17351 -64.06902 38057 ft 453 kts 327°
2026-05-05 03:56 2.22603 -64.10361 38063 ft 453 kts 327°
2026-05-05 03:56 2.27859 -64.13821 38063 ft 453 kts 327°
2026-05-05 03:57 2.33135 -64.17296 38060 ft 453 kts 327°
2026-05-05 03:57 2.38373 -64.20745 38066 ft 453 kts 327°
2026-05-05 03:58 2.43642 -64.24216 38068 ft 453 kts 327°
2026-05-05 03:58 2.48933 -64.27700 38082 ft 453 kts 327°
2026-05-05 03:59 2.54194 -64.31166 38093 ft 453 kts 327°
2026-05-05 03:59 2.59459 -64.34635 38082 ft 453 kts 327°
2026-05-05 04:00 2.64692 -64.38083 38083 ft 453 kts 327°
2026-05-05 04:00 2.69960 -64.41554 38070 ft 453 kts 327°
2026-05-05 04:01 2.75221 -64.45022 38077 ft 452 kts 327°
2026-05-05 04:01 2.80500 -64.48502 38070 ft 453 kts 327°
2026-05-05 04:02 2.85736 -64.51952 38073 ft 452 kts 327°
2026-05-05 04:02 2.91007 -64.55428 38075 ft 453 kts 327°
2026-05-05 04:03 2.96276 -64.58901 38073 ft 453 kts 327°
2026-05-05 04:03 3.01513 -64.62355 38075 ft 452 kts 327°
2026-05-05 04:04 3.06783 -64.65830 38080 ft 453 kts 327°
2026-05-05 04:04 3.12047 -64.69302 38087 ft 451 kts 327°
2026-05-05 04:05 3.17297 -64.72765 38104 ft 451 kts 327°
2026-05-05 04:05 3.22548 -64.76229 38132 ft 451 kts 327°
2026-05-05 04:06 3.27801 -64.79695 38127 ft 452 kts 327°
2026-05-05 04:06 3.33047 -64.83157 38108 ft 452 kts 327°
2026-05-05 04:07 3.38285 -64.86614 38102 ft 452 kts 327°
2026-05-05 04:07 3.43553 -64.90092 38087 ft 452 kts 327°
2026-05-05 04:08 3.48798 -64.93554 38083 ft 451 kts 327°
2026-05-05 04:08 3.54051 -64.97021 38076 ft 451 kts 327°
2026-05-05 04:09 3.59318 -65.00500 38085 ft 452 kts 327°
2026-05-05 04:09 3.64581 -65.03976 38090 ft 453 kts 327°
2026-05-05 04:10 3.69850 -65.07456 38096 ft 453 kts 327°
2026-05-05 04:10 3.75119 -65.10937 38091 ft 453 kts 327°
2026-05-05 04:11 3.80383 -65.14415 38102 ft 453 kts 327°
2026-05-05 04:11 3.85660 -65.17902 38109 ft 453 kts 327°
2026-05-05 04:12 3.90911 -65.21372 38117 ft 453 kts 327°
2026-05-05 04:12 3.96169 -65.24848 38123 ft 452 kts 327°
2026-05-05 04:13 4.01425 -65.28323 38137 ft 453 kts 327°
2026-05-05 04:13 4.06709 -65.31816 38159 ft 455 kts 327°
2026-05-05 04:14 4.11997 -65.35313 38189 ft 454 kts 327°
2026-05-05 04:14 4.17289 -65.38814 38209 ft 453 kts 327°
2026-05-05 04:15 4.22540 -65.42287 38233 ft 453 kts 327°
2026-05-05 04:15 4.27826 -65.45785 38236 ft 453 kts 327°
2026-05-05 04:16 4.33106 -65.49279 38225 ft 454 kts 327°
2026-05-05 04:16 4.38358 -65.52755 38216 ft 454 kts 327°
2026-05-05 04:17 4.43659 -65.56264 38206 ft 455 kts 327°
2026-05-05 04:17 4.48951 -65.59768 38208 ft 455 kts 327°
2026-05-05 04:18 4.54239 -65.63269 38209 ft 456 kts 327°
2026-05-05 04:18 4.59515 -65.66764 38211 ft 455 kts 327°
2026-05-05 04:19 4.64836 -65.70289 38189 ft 455 kts 327°
2026-05-05 04:19 4.70132 -65.73798 38163 ft 456 kts 327°
2026-05-05 04:20 4.75438 -65.77315 38126 ft 458 kts 327°
2026-05-05 04:20 4.80764 -65.80844 38120 ft 459 kts 326°
2026-05-05 04:21 4.86116 -65.84392 38100 ft 458 kts 327°
2026-05-05 04:21 4.91411 -65.87904 38088 ft 454 kts 326°
2026-05-05 04:22 4.96673 -65.91393 38089 ft 453 kts 327°
2026-05-05 04:22 5.01903 -65.94862 38083 ft 452 kts 327°
2026-05-05 04:23 5.07166 -65.98354 38084 ft 452 kts 327°
2026-05-05 04:23 5.12441 -66.01855 38081 ft 451 kts 326°
2026-05-05 04:24 5.17667 -66.05324 38082 ft 452 kts 326°
2026-05-05 04:25 5.25522 -66.10538 38097 ft 451 kts 327°
2026-05-05 04:25 5.30804 -66.14046 38112 ft 451 kts 327°
2026-05-05 04:26 5.36041 -66.17524 38128 ft 453 kts 327°
2026-05-05 04:26 5.41279 -66.21004 38145 ft 452 kts 327°
2026-05-05 04:27 5.46538 -66.24498 38163 ft 452 kts 327°
2026-05-05 04:27 5.51775 -66.27979 38181 ft 451 kts 327°
2026-05-05 04:28 5.57027 -66.31471 38197 ft 450 kts 327°
2026-05-05 04:28 5.62249 -66.34943 38208 ft 451 kts 327°
2026-05-05 04:29 5.67517 -66.38447 38220 ft 452 kts 327°
2026-05-05 04:29 5.72753 -66.41929 38226 ft 451 kts 327°
2026-05-05 04:30 5.77992 -66.45416 38229 ft 451 kts 327°
2026-05-05 04:30 5.83242 -66.48909 38223 ft 450 kts 327°
2026-05-05 04:31 5.88478 -66.52394 38218 ft 450 kts 327°
2026-05-05 04:31 5.93700 -66.55871 38205 ft 451 kts 327°
2026-05-05 04:32 5.98960 -66.59374 38188 ft 453 kts 327°
2026-05-05 04:32 6.04210 -66.62872 38178 ft 452 kts 327°
2026-05-05 04:33 6.09461 -66.66370 38158 ft 452 kts 327°
2026-05-05 04:33 6.14679 -66.69847 38143 ft 452 kts 327°
2026-05-05 04:34 6.19932 -66.73349 38125 ft 451 kts 327°
2026-05-05 04:34 6.25160 -66.76835 38113 ft 451 kts 327°
2026-05-05 04:35 6.30426 -66.80347 38088 ft 451 kts 327°
2026-05-05 04:35 6.35662 -66.83839 38065 ft 451 kts 327°
2026-05-05 04:36 6.40893 -66.87330 38046 ft 451 kts 327°
2026-05-05 04:36 6.46107 -66.90810 38026 ft 451 kts 327°
2026-05-05 04:37 6.51370 -66.94324 38005 ft 450 kts 327°
2026-05-05 04:37 6.56597 -66.97812 37985 ft 451 kts 327°
2026-05-05 04:38 6.61821 -67.01293 37969 ft 450 kts 327°
2026-05-05 04:38 6.67067 -67.04790 37955 ft 451 kts 327°
2026-05-05 04:39 6.72283 -67.08266 37946 ft 452 kts 327°
2026-05-05 04:39 6.77548 -67.11777 37941 ft 450 kts 327°
2026-05-05 04:40 6.82743 -67.15243 37942 ft 450 kts 327°
2026-05-05 04:40 6.87986 -67.18741 37943 ft 449 kts 327°
2026-05-05 04:41 6.93182 -67.22208 37942 ft 450 kts 327°
2026-05-05 04:41 6.98450 -67.25725 37939 ft 451 kts 327°
2026-05-05 04:42 7.03657 -67.29204 37935 ft 451 kts 327°
2026-05-05 04:42 7.08868 -67.32686 37933 ft 449 kts 327°
2026-05-05 04:43 7.14098 -67.36183 37933 ft 449 kts 327°
2026-05-05 04:43 7.19297 -67.39658 37928 ft 449 kts 327°
2026-05-05 04:44 7.24519 -67.43151 37925 ft 450 kts 327°
2026-05-05 04:44 7.29728 -67.46636 37923 ft 449 kts 327°
2026-05-05 04:45 7.34947 -67.50133 37920 ft 452 kts 326°
2026-05-05 04:45 7.40195 -67.53652 37916 ft 450 kts 326°
2026-05-05 04:46 7.45390 -67.57137 37911 ft 450 kts 326°
2026-05-05 04:46 7.50633 -67.60654 37910 ft 450 kts 326°
2026-05-05 04:47 7.55861 -67.64163 37910 ft 452 kts 326°
2026-05-05 04:47 7.61089 -67.67673 37911 ft 451 kts 326°
2026-05-05 04:48 7.66316 -67.71182 37911 ft 452 kts 326°
2026-05-05 04:48 7.71571 -67.74713 37911 ft 452 kts 326°
2026-05-05 04:49 7.76792 -67.78221 37911 ft 453 kts 326°
2026-05-05 04:49 7.82056 -67.81759 37911 ft 453 kts 326°
2026-05-05 04:50 7.87318 -67.85297 37911 ft 453 kts 326°
2026-05-05 04:50 7.92581 -67.88837 37911 ft 454 kts 326°
2026-05-05 04:51 7.97830 -67.92368 37911 ft 453 kts 326°
2026-05-05 04:51 8.03069 -67.95894 37912 ft 454 kts 326°
2026-05-05 04:52 8.08368 -67.99461 37912 ft 454 kts 326°
2026-05-05 04:52 8.13626 -68.03003 37912 ft 454 kts 326°
2026-05-05 04:53 8.18887 -68.06548 37913 ft 454 kts 326°
2026-05-05 04:53 8.24125 -68.10078 37912 ft 454 kts 326°
2026-05-05 04:54 8.29413 -68.13644 37912 ft 455 kts 326°
2026-05-05 04:54 8.34643 -68.17171 37912 ft 453 kts 326°
2026-05-05 04:55 8.39882 -68.20705 37913 ft 453 kts 326°
2026-05-05 04:55 8.45157 -68.24264 37918 ft 452 kts 326°
2026-05-05 04:56 8.50382 -68.27792 37924 ft 452 kts 326°
2026-05-05 04:56 8.55637 -68.31340 37927 ft 453 kts 326°
2026-05-05 04:57 8.60890 -68.34889 37931 ft 454 kts 326°
2026-05-05 04:57 8.66154 -68.38446 37930 ft 454 kts 326°
2026-05-05 04:58 8.71379 -68.41978 37931 ft 454 kts 326°
2026-05-05 04:58 8.76636 -68.45532 37932 ft 453 kts 327°
2026-05-05 04:59 8.81881 -68.49081 37933 ft 452 kts 327°
2026-05-05 04:59 8.87122 -68.52627 37934 ft 454 kts 327°
2026-05-05 05:00 8.92378 -68.56185 37934 ft 454 kts 327°
2026-05-05 05:00 8.97605 -68.59724 37936 ft 454 kts 327°
2026-05-05 05:01 9.02849 -68.63277 37936 ft 453 kts 327°
2026-05-05 05:01 9.08110 -68.66842 37936 ft 453 kts 327°
2026-05-05 05:02 9.13350 -68.70394 37932 ft 453 kts 327°
2026-05-05 05:02 9.18574 -68.73937 37934 ft 453 kts 327°
2026-05-05 05:03 9.23826 -68.77499 37936 ft 453 kts 327°
2026-05-05 05:03 9.29053 -68.81046 37944 ft 453 kts 327°
2026-05-05 05:04 9.34314 -68.84617 37943 ft 454 kts 327°
2026-05-05 05:04 9.39532 -68.88160 37949 ft 453 kts 327°
2026-05-05 05:05 9.44796 -68.91736 37951 ft 453 kts 327°
2026-05-05 05:05 9.50005 -68.95276 37950 ft 453 kts 327°
2026-05-05 05:06 9.55242 -68.98837 37954 ft 453 kts 327°
2026-05-05 05:06 9.60507 -69.02417 37954 ft 453 kts 327°
2026-05-05 05:07 9.65745 -69.05981 37963 ft 453 kts 327°
2026-05-05 05:07 9.70985 -69.09546 37974 ft 453 kts 327°
2026-05-05 05:08 9.76197 -69.13093 37987 ft 452 kts 327°
2026-05-05 05:08 9.81458 -69.16676 37995 ft 452 kts 327°
2026-05-05 05:09 9.86653 -69.20214 38007 ft 452 kts 327°
2026-05-05 05:09 9.91919 -69.23802 38013 ft 453 kts 327°
2026-05-05 05:10 9.97148 -69.27367 38024 ft 453 kts 327°
2026-05-05 05:10 10.02366 -69.30926 38032 ft 453 kts 327°
2026-05-05 05:11 10.07609 -69.34502 38041 ft 453 kts 327°
2026-05-05 05:11 10.12828 -69.38063 38045 ft 453 kts 327°
2026-05-05 05:12 10.18047 -69.41626 38046 ft 453 kts 327°
2026-05-05 05:12 10.23290 -69.45207 38046 ft 453 kts 327°
2026-05-05 05:13 10.28504 -69.48769 38041 ft 452 kts 327°
2026-05-05 05:13 10.33760 -69.52362 38038 ft 453 kts 327°
2026-05-05 05:14 10.38991 -69.55940 38033 ft 454 kts 327°
2026-05-05 05:14 10.44208 -69.59510 38016 ft 454 kts 327°
2026-05-05 05:15 10.49465 -69.63109 38008 ft 454 kts 327°
2026-05-05 05:15 10.54680 -69.66681 38007 ft 453 kts 326°
2026-05-05 05:16 10.59924 -69.70274 38024 ft 453 kts 326°
2026-05-05 05:16 10.65133 -69.73833 38037 ft 453 kts 327°
2026-05-05 05:17 10.70373 -69.77416 38047 ft 453 kts 326°
2026-05-05 05:17 10.75619 -69.81018 38053 ft 453 kts 327°
2026-05-05 05:18 10.80815 -69.84586 38029 ft 453 kts 326°
2026-05-05 05:18 10.86060 -69.88191 38011 ft 453 kts 326°
2026-05-05 05:19 10.91314 -69.91801 37988 ft 453 kts 327°
2026-05-05 05:19 10.96548 -69.95400 37974 ft 453 kts 326°
2026-05-05 05:20 11.01765 -69.98989 37958 ft 452 kts 326°
2026-05-05 05:20 11.06971 -70.02572 37949 ft 453 kts 326°
2026-05-05 05:21 11.12192 -70.06162 37940 ft 454 kts 326°
2026-05-05 05:21 11.17434 -70.09769 37937 ft 454 kts 326°
2026-05-05 05:22 11.22661 -70.13367 37928 ft 453 kts 326°
2026-05-05 05:22 11.27889 -70.16967 37921 ft 452 kts 326°
2026-05-05 05:23 11.33108 -70.20563 37924 ft 451 kts 326°
2026-05-05 05:23 11.38302 -70.24143 37919 ft 453 kts 326°
2026-05-05 05:24 11.43537 -70.27753 37912 ft 453 kts 326°
2026-05-05 05:24 11.48780 -70.31369 37905 ft 454 kts 326°
2026-05-05 05:25 11.53979 -70.34958 37905 ft 453 kts 326°
2026-05-05 05:25 11.59221 -70.38577 37905 ft 453 kts 326°
2026-05-05 05:26 11.64428 -70.42193 37903 ft 451 kts 326°
2026-05-05 05:26 11.69620 -70.45798 37899 ft 451 kts 326°
2026-05-05 05:27 11.74830 -70.49407 37902 ft 451 kts 326°
2026-05-05 05:27 11.82634 -70.54815 37903 ft 453 kts 326°
2026-05-05 05:28 11.87870 -70.58446 37903 ft 452 kts 326°
2026-05-05 05:28 11.93046 -70.62037 37904 ft 451 kts 326°
2026-05-05 05:29 11.98243 -70.65644 37903 ft 452 kts 325°
2026-05-05 05:29 12.03483 -70.69283 37903 ft 452 kts 325°
2026-05-05 05:30 12.08696 -70.72905 37902 ft 452 kts 325°
2026-05-05 05:30 12.13907 -70.76527 37909 ft 451 kts 326°
2026-05-05 05:31 12.19097 -70.80136 37908 ft 453 kts 326°
2026-05-05 05:31 12.24305 -70.83759 37907 ft 453 kts 325°
2026-05-05 05:32 12.29520 -70.87386 37910 ft 454 kts 325°
2026-05-05 05:32 12.34736 -70.91017 37910 ft 454 kts 325°
2026-05-05 05:33 12.39966 -70.94659 37913 ft 453 kts 325°
2026-05-05 05:33 12.45175 -70.98288 37913 ft 454 kts 325°
2026-05-05 05:34 12.50412 -71.01929 37913 ft 453 kts 326°
2026-05-05 05:34 12.55703 -71.05448 37917 ft 452 kts 326°
2026-05-05 05:35 12.60980 -71.08967 37916 ft 452 kts 326°
2026-05-05 05:35 12.66259 -71.12489 37917 ft 454 kts 326°
2026-05-05 05:36 12.71541 -71.16015 37921 ft 454 kts 326°
2026-05-05 05:36 12.76855 -71.19565 37925 ft 454 kts 326°
2026-05-05 05:37 12.82139 -71.23095 37926 ft 454 kts 326°
2026-05-05 05:37 12.87442 -71.26641 37933 ft 453 kts 325°
2026-05-05 05:38 12.92744 -71.30188 37933 ft 454 kts 325°
2026-05-05 05:38 12.98039 -71.33731 37934 ft 455 kts 325°
2026-05-05 05:39 13.03355 -71.37290 37937 ft 456 kts 325°
2026-05-05 05:39 13.08675 -71.40855 37930 ft 456 kts 325°
2026-05-05 05:40 13.13998 -71.44422 37929 ft 456 kts 325°
2026-05-05 05:40 13.19291 -71.47970 37927 ft 455 kts 325°
2026-05-05 05:41 13.24614 -71.51540 37928 ft 456 kts 325°
2026-05-05 05:41 13.29914 -71.55096 37930 ft 455 kts 325°
2026-05-05 05:42 13.35202 -71.58645 37930 ft 455 kts 325°
2026-05-05 05:42 13.40503 -71.62206 37931 ft 456 kts 325°
2026-05-05 05:43 13.45831 -71.65787 37933 ft 456 kts 324°
2026-05-05 05:43 13.51138 -71.69354 37937 ft 455 kts 324°
2026-05-05 05:44 13.56455 -71.72932 37938 ft 456 kts 324°
2026-05-05 05:44 13.61743 -71.76492 37937 ft 456 kts 324°
2026-05-05 05:45 13.67080 -71.80086 37939 ft 456 kts 324°
2026-05-05 05:45 13.72372 -71.83652 37938 ft 456 kts 324°
2026-05-05 05:46 13.77684 -71.87233 37943 ft 456 kts 324°
2026-05-05 05:46 13.82982 -71.90807 37941 ft 456 kts 324°
2026-05-05 05:47 13.88308 -71.94401 37941 ft 456 kts 324°
2026-05-05 05:47 13.93632 -71.97974 37946 ft 457 kts 324°
2026-05-05 05:48 13.98950 -72.01547 37940 ft 457 kts 324°
2026-05-05 05:48 14.04288 -72.05135 37931 ft 457 kts 324°
2026-05-05 05:49 14.09598 -72.08706 37928 ft 456 kts 324°
2026-05-05 05:49 14.14904 -72.12277 37928 ft 456 kts 324°
2026-05-05 05:50 14.20214 -72.15852 37928 ft 454 kts 324°
2026-05-05 05:50 14.25514 -72.19422 37930 ft 454 kts 324°
2026-05-05 05:51 14.30819 -72.22998 37929 ft 454 kts 324°
2026-05-05 05:51 14.36096 -72.26582 37930 ft 454 kts 324°
2026-05-05 05:52 14.41347 -72.30175 37933 ft 454 kts 324°
2026-05-05 05:52 14.46643 -72.33800 37932 ft 454 kts 324°
2026-05-05 05:53 14.51904 -72.37402 37935 ft 454 kts 324°
2026-05-05 05:53 14.57164 -72.41007 37936 ft 453 kts 324°
2026-05-05 05:54 14.62430 -72.44617 37933 ft 453 kts 324°
2026-05-05 05:54 14.67687 -72.48202 37933 ft 453 kts 324°
2026-05-05 05:55 14.72964 -72.51807 37933 ft 453 kts 324°
2026-05-05 05:55 14.78195 -72.55379 37930 ft 453 kts 324°
2026-05-05 05:56 14.83472 -72.58987 37930 ft 454 kts 324°
2026-05-05 05:56 14.88742 -72.62592 37929 ft 454 kts 324°
2026-05-05 05:57 14.94014 -72.66199 37934 ft 454 kts 324°
2026-05-05 05:57 14.99270 -72.69798 37934 ft 453 kts 324°
2026-05-05 05:58 15.04525 -72.73399 37932 ft 453 kts 324°
2026-05-05 05:58 15.09786 -72.77006 37937 ft 452 kts 324°
2026-05-05 05:59 15.15046 -72.80615 37929 ft 452 kts 324°
2026-05-05 05:59 15.20272 -72.84202 37932 ft 453 kts 324°
2026-05-05 06:00 15.25518 -72.87804 37937 ft 452 kts 324°
2026-05-05 06:00 15.30764 -72.91410 37936 ft 452 kts 324°
2026-05-05 06:01 15.36027 -72.95029 37936 ft 451 kts 324°
2026-05-05 06:01 15.41258 -72.98628 37934 ft 450 kts 324°
2026-05-05 06:02 15.46482 -73.02224 37945 ft 450 kts 324°
2026-05-05 06:02 15.51706 -73.05823 37954 ft 450 kts 323°
2026-05-05 06:03 15.56939 -73.09427 37958 ft 450 kts 323°
2026-05-05 06:03 15.62179 -73.13030 37962 ft 449 kts 323°
2026-05-05 06:04 15.67381 -73.16610 37963 ft 449 kts 323°
2026-05-05 06:04 15.72580 -73.20190 37963 ft 447 kts 323°
2026-05-05 06:05 15.77783 -73.23775 37964 ft 447 kts 323°
2026-05-05 06:05 15.82963 -73.27345 37965 ft 447 kts 323°
2026-05-05 06:06 15.88141 -73.30917 37962 ft 447 kts 323°
2026-05-05 06:06 15.93329 -73.34499 37963 ft 446 kts 323°
2026-05-05 06:07 15.98528 -73.38090 37958 ft 446 kts 323°
2026-05-05 06:07 16.03687 -73.41656 37949 ft 446 kts 323°
2026-05-05 06:08 16.08863 -73.45235 37946 ft 446 kts 323°
2026-05-05 06:08 16.14055 -73.48828 37945 ft 446 kts 323°
2026-05-05 06:09 16.19224 -73.52408 37945 ft 446 kts 323°
2026-05-05 06:09 16.24398 -73.55993 37945 ft 446 kts 323°
2026-05-05 06:10 16.29585 -73.59589 37949 ft 445 kts 323°
2026-05-05 06:10 16.34761 -73.63180 37952 ft 445 kts 323°
2026-05-05 06:11 16.39921 -73.66742 37959 ft 445 kts 323°
2026-05-05 06:11 16.45084 -73.70299 37960 ft 445 kts 323°
2026-05-05 06:12 16.50249 -73.73860 37959 ft 445 kts 323°
2026-05-05 06:12 16.55463 -73.77457 37960 ft 446 kts 323°
2026-05-05 06:13 16.60609 -73.81009 37962 ft 445 kts 323°
2026-05-05 06:13 16.65789 -73.84588 37963 ft 444 kts 323°
2026-05-05 06:14 16.70950 -73.88155 37963 ft 444 kts 323°
2026-05-05 06:14 16.76092 -73.91712 37962 ft 445 kts 323°
2026-05-05 06:15 16.81245 -73.95279 37964 ft 444 kts 323°
2026-05-05 06:15 16.86439 -73.98877 37964 ft 445 kts 323°
2026-05-05 06:16 16.91580 -74.02440 37966 ft 445 kts 323°
2026-05-05 06:16 16.96750 -74.06026 37967 ft 444 kts 323°
2026-05-05 06:17 17.01911 -74.09608 37969 ft 443 kts 323°
2026-05-05 06:17 17.07054 -74.13179 37967 ft 443 kts 323°
2026-05-05 06:18 17.12185 -74.16745 37968 ft 444 kts 323°
2026-05-05 06:18 17.17341 -74.20331 37969 ft 443 kts 322°
2026-05-05 06:19 17.22496 -74.23918 37968 ft 443 kts 322°
2026-05-05 06:19 17.27612 -74.27481 37969 ft 442 kts 322°
2026-05-05 06:20 17.32726 -74.31045 37970 ft 441 kts 322°
2026-05-05 06:20 17.37810 -74.34590 37971 ft 441 kts 322°
2026-05-05 06:21 17.42899 -74.38141 37971 ft 440 kts 322°
2026-05-05 06:21 17.48022 -74.41718 37969 ft 440 kts 322°
2026-05-05 06:22 17.53090 -74.45259 37971 ft 439 kts 322°
2026-05-05 06:22 17.58182 -74.48820 37969 ft 439 kts 322°
2026-05-05 06:23 17.63268 -74.52378 37968 ft 438 kts 322°
2026-05-05 06:23 17.68326 -74.55920 37969 ft 437 kts 322°
2026-05-05 06:24 17.73383 -74.59463 37971 ft 436 kts 322°
2026-05-05 06:24 17.78437 -74.63007 37964 ft 435 kts 322°
2026-05-05 06:25 17.83441 -74.66518 37980 ft 436 kts 322°
2026-05-05 06:25 17.88517 -74.70082 37977 ft 436 kts 322°
2026-05-05 06:26 17.93511 -74.73592 37976 ft 435 kts 322°
2026-05-05 06:26 17.98572 -74.77149 37974 ft 434 kts 322°
2026-05-05 06:27 18.06078 -74.82432 37973 ft 433 kts 322°
2026-05-05 06:28 18.11106 -74.85973 37972 ft 433 kts 321°
2026-05-05 06:28 18.16102 -74.89494 37971 ft 434 kts 321°
2026-05-05 06:29 18.21127 -74.93039 37970 ft 434 kts 321°
2026-05-05 06:29 18.26149 -74.96583 37967 ft 434 kts 321°
2026-05-05 06:30 18.31167 -75.00127 37966 ft 433 kts 321°
2026-05-05 06:30 18.36154 -75.03652 37968 ft 432 kts 321°
2026-05-05 06:31 18.41143 -75.07181 37960 ft 432 kts 321°
2026-05-05 06:31 18.46162 -75.10734 37960 ft 432 kts 321°
2026-05-05 06:32 18.51141 -75.14260 37965 ft 432 kts 321°
2026-05-05 06:32 18.56145 -75.17807 37964 ft 433 kts 321°
2026-05-05 06:33 18.61434 -75.20890 37964 ft 436 kts 326°
2026-05-05 06:33 18.66777 -75.23971 37965 ft 435 kts 326°
2026-05-05 06:34 18.72074 -75.27042 37962 ft 436 kts 326°
2026-05-05 06:34 18.77417 -75.30142 37962 ft 435 kts 326°
2026-05-05 06:35 18.82713 -75.33218 37962 ft 435 kts 326°
2026-05-05 06:35 18.88008 -75.36295 37962 ft 434 kts 326°
2026-05-05 06:36 18.93319 -75.39383 37963 ft 434 kts 326°
2026-05-05 06:36 18.98610 -75.42462 37960 ft 434 kts 326°
2026-05-05 06:37 19.03896 -75.45541 37962 ft 433 kts 325°
2026-05-05 06:37 19.09164 -75.48611 37963 ft 434 kts 325°
2026-05-05 06:38 19.14452 -75.51696 37963 ft 433 kts 325°
2026-05-05 06:38 19.19723 -75.54773 37962 ft 434 kts 325°
2026-05-05 06:39 19.25005 -75.57858 37967 ft 433 kts 325°
2026-05-05 06:39 19.30298 -75.60951 37963 ft 433 kts 325°
2026-05-05 06:40 19.35550 -75.64024 37964 ft 432 kts 325°
2026-05-05 06:40 19.40842 -75.67123 37977 ft 434 kts 324°
2026-05-05 06:41 19.46106 -75.70207 37980 ft 432 kts 325°
2026-05-05 06:41 19.51371 -75.73293 37978 ft 432 kts 324°
2026-05-05 06:42 19.56643 -75.76387 37980 ft 431 kts 325°
2026-05-05 06:42 19.61884 -75.79464 37978 ft 432 kts 324°
2026-05-05 06:43 19.67142 -75.82554 37987 ft 430 kts 324°
2026-05-05 06:43 19.72363 -75.85624 37984 ft 430 kts 324°
2026-05-05 06:44 19.77589 -75.88699 37984 ft 431 kts 324°
2026-05-05 06:44 19.82850 -75.91798 37990 ft 431 kts 324°
2026-05-05 06:45 19.88069 -75.94875 38002 ft 432 kts 324°
2026-05-05 06:45 19.93328 -75.97976 38006 ft 428 kts 324°
2026-05-05 06:46 19.98552 -76.01060 38011 ft 428 kts 324°
2026-05-05 06:46 20.03731 -76.04120 38008 ft 427 kts 324°
2026-05-05 06:47 20.08925 -76.07191 38001 ft 428 kts 324°
2026-05-05 06:47 20.14131 -76.10270 37995 ft 426 kts 324°
2026-05-05 06:48 20.19316 -76.13341 37995 ft 427 kts 324°
2026-05-05 06:48 20.24514 -76.16421 37997 ft 427 kts 324°
2026-05-05 06:49 20.29716 -76.19505 37991 ft 427 kts 324°
2026-05-05 06:49 20.34898 -76.22581 37992 ft 426 kts 324°
2026-05-05 06:50 20.40093 -76.25667 37987 ft 424 kts 324°
2026-05-05 06:50 20.45267 -76.28742 37988 ft 426 kts 324°
2026-05-05 06:51 20.50418 -76.31806 37982 ft 425 kts 324°
2026-05-05 06:51 20.55594 -76.34888 37981 ft 427 kts 324°
2026-05-05 06:52 20.60779 -76.37978 37984 ft 426 kts 324°
2026-05-05 06:52 20.65957 -76.41065 37985 ft 424 kts 324°
2026-05-05 06:53 20.71087 -76.44125 37985 ft 424 kts 324°
2026-05-05 06:53 20.76228 -76.47197 37981 ft 424 kts 324°
2026-05-05 06:54 20.81360 -76.50263 37975 ft 422 kts 324°
2026-05-05 06:54 20.86532 -76.53358 37983 ft 424 kts 324°
2026-05-05 06:55 20.91673 -76.56435 37988 ft 423 kts 324°
2026-05-05 06:55 20.96769 -76.59488 37981 ft 422 kts 324°
2026-05-05 06:56 21.01900 -76.62564 37971 ft 422 kts 324°
2026-05-05 06:56 21.07033 -76.65644 37987 ft 421 kts 324°
2026-05-05 06:57 21.12133 -76.68707 37990 ft 421 kts 324°
2026-05-05 06:57 21.17251 -76.71783 37988 ft 420 kts 324°
2026-05-05 06:58 21.22356 -76.74854 37982 ft 420 kts 324°
2026-05-05 06:58 21.27469 -76.77932 37977 ft 421 kts 324°
2026-05-05 06:59 21.32563 -76.81000 37976 ft 419 kts 324°
2026-05-05 06:59 21.37635 -76.84060 37971 ft 419 kts 324°
2026-05-05 07:00 21.42718 -76.87130 37976 ft 418 kts 324°
2026-05-05 07:00 21.47821 -76.90214 37967 ft 419 kts 324°
2026-05-05 07:01 21.52865 -76.93264 37968 ft 417 kts 324°
2026-05-05 07:01 21.57934 -76.96333 37969 ft 415 kts 324°
2026-05-05 07:02 21.62978 -76.99388 37970 ft 416 kts 324°
2026-05-05 07:02 21.68017 -77.02443 37969 ft 414 kts 324°
2026-05-05 07:03 21.73065 -77.05507 37964 ft 416 kts 324°
2026-05-05 07:03 21.78082 -77.08551 37967 ft 414 kts 324°
2026-05-05 07:04 21.83106 -77.11601 37967 ft 414 kts 324°
2026-05-05 07:04 21.88116 -77.14644 37964 ft 413 kts 324°
2026-05-05 07:05 21.93152 -77.17705 37964 ft 415 kts 324°
2026-05-05 07:05 21.98149 -77.20746 37968 ft 413 kts 324°
2026-05-05 07:06 22.03148 -77.23790 37961 ft 411 kts 325°
2026-05-05 07:06 22.08110 -77.26814 37961 ft 410 kts 324°
2026-05-05 07:07 22.13082 -77.29846 37965 ft 411 kts 324°
2026-05-05 07:07 22.18037 -77.32872 37965 ft 410 kts 324°
2026-05-05 07:08 22.23009 -77.35915 37964 ft 409 kts 325°
2026-05-05 07:08 22.27944 -77.38936 37964 ft 408 kts 325°
2026-05-05 07:09 22.32885 -77.41962 37966 ft 408 kts 325°
2026-05-05 07:09 22.37822 -77.44986 37962 ft 406 kts 325°
2026-05-05 07:10 22.42745 -77.48006 37958 ft 407 kts 325°
2026-05-05 07:10 22.47664 -77.51025 37964 ft 407 kts 325°
2026-05-05 07:11 22.52567 -77.54036 37958 ft 406 kts 325°
2026-05-05 07:11 22.57439 -77.57032 37960 ft 404 kts 325°
2026-05-05 07:12 22.62340 -77.60048 37959 ft 403 kts 325°
2026-05-05 07:12 22.67221 -77.63053 37956 ft 402 kts 325°
2026-05-05 07:13 22.72065 -77.66039 37970 ft 402 kts 325°
2026-05-05 07:13 22.76953 -77.69052 37975 ft 402 kts 324°
2026-05-05 07:14 22.81815 -77.72055 37971 ft 402 kts 325°
2026-05-05 07:14 22.86654 -77.75045 37970 ft 401 kts 325°
2026-05-05 07:15 22.91496 -77.78038 37967 ft 400 kts 325°
2026-05-05 07:15 22.96331 -77.81030 37967 ft 400 kts 325°
2026-05-05 07:16 23.01173 -77.84029 37967 ft 399 kts 325°
2026-05-05 07:16 23.05981 -77.87012 37965 ft 399 kts 325°
2026-05-05 07:17 23.10791 -77.89999 37969 ft 400 kts 325°
2026-05-05 07:17 23.15604 -77.92991 37972 ft 397 kts 325°
2026-05-05 07:18 23.20403 -77.95977 37970 ft 396 kts 325°
2026-05-05 07:18 23.25189 -77.98959 37970 ft 395 kts 325°
2026-05-05 07:19 23.29947 -78.01923 37969 ft 394 kts 324°
2026-05-05 07:19 23.34703 -78.04890 37966 ft 392 kts 324°
2026-05-05 07:20 23.39436 -78.07844 37966 ft 394 kts 324°
2026-05-05 07:20 23.44203 -78.10822 37965 ft 393 kts 324°
2026-05-05 07:21 23.48933 -78.13780 37962 ft 394 kts 324°
2026-05-05 07:21 23.53727 -78.16781 37963 ft 393 kts 324°
2026-05-05 07:22 23.58468 -78.19751 37960 ft 391 kts 324°
2026-05-05 07:22 23.63184 -78.22707 37957 ft 393 kts 324°
2026-05-05 07:23 23.67907 -78.25671 37957 ft 391 kts 324°
2026-05-05 07:23 23.72619 -78.28629 37957 ft 391 kts 324°
2026-05-05 07:24 23.77373 -78.31618 37954 ft 393 kts 324°
2026-05-05 07:24 23.82084 -78.34581 37951 ft 390 kts 324°
2026-05-05 07:25 23.86797 -78.37548 37953 ft 390 kts 324°
2026-05-05 07:25 23.91518 -78.40523 37950 ft 392 kts 324°
2026-05-05 07:26 23.96200 -78.43475 37949 ft 390 kts 324°
2026-05-05 07:26 24.00963 -78.46353 37939 ft 395 kts 329°
2026-05-05 07:27 24.05991 -78.48773 37934 ft 395 kts 330°
2026-05-05 07:27 24.11003 -78.51198 37945 ft 394 kts 330°
2026-05-05 07:28 24.16027 -78.53631 37950 ft 393 kts 330°
2026-05-05 07:28 24.21015 -78.56049 37952 ft 392 kts 330°
2026-05-05 07:29 24.26024 -78.58478 37950 ft 394 kts 329°
2026-05-05 07:29 24.31040 -78.60915 37950 ft 393 kts 330°
2026-05-05 07:30 24.36034 -78.63341 37949 ft 392 kts 330°
2026-05-05 07:30 24.43518 -78.66982 37970 ft 392 kts 329°
2026-05-05 07:31 24.48509 -78.69411 37972 ft 391 kts 329°
2026-05-05 07:31 24.53491 -78.71840 37970 ft 392 kts 329°
2026-05-05 07:32 24.58419 -78.74243 37969 ft 384 kts 330°
2026-05-05 07:32 24.63308 -78.76630 37799 ft 386 kts 329°
2026-05-05 07:33 24.65651 -78.77774 37396 ft 387 kts 329°
2026-05-05 07:33 24.68151 -78.78996 36965 ft 387 kts 330°
2026-05-05 07:33 24.70594 -78.80190 36539 ft 387 kts 330°
2026-05-05 07:33 24.73043 -78.81387 36115 ft 389 kts 330°
2026-05-05 07:34 24.75544 -78.82611 35677 ft 391 kts 330°
2026-05-05 07:34 24.78040 -78.83834 35244 ft 392 kts 330°
2026-05-05 07:34 24.80518 -78.85046 34810 ft 394 kts 330°
2026-05-05 07:34 24.83035 -78.86280 34372 ft 397 kts 331°
2026-05-05 07:35 24.85575 -78.87524 33931 ft 401 kts 330°
2026-05-05 07:35 24.88130 -78.88777 33486 ft 403 kts 331°
2026-05-05 07:35 24.90687 -78.90031 33048 ft 404 kts 331°
2026-05-05 07:35 24.93272 -78.91300 32607 ft 406 kts 331°
2026-05-05 07:36 24.95843 -78.92563 32157 ft 407 kts 331°
2026-05-05 07:36 24.98448 -78.93842 31702 ft 404 kts 331°
2026-05-05 07:36 25.01002 -78.95097 31259 ft 402 kts 331°
2026-05-05 07:36 25.03570 -78.96359 30811 ft 402 kts 331°
2026-05-05 07:37 25.06107 -78.97607 30367 ft 400 kts 331°
2026-05-05 07:37 25.08605 -78.98837 29931 ft 397 kts 332°
2026-05-05 07:37 25.11142 -79.00086 29494 ft 392 kts 331°
2026-05-05 07:37 25.13611 -79.01302 29068 ft 389 kts 332°
2026-05-05 07:38 25.16081 -79.02519 28640 ft 385 kts 331°
2026-05-05 07:38 25.18534 -79.03729 28211 ft 386 kts 331°
2026-05-05 07:38 25.20971 -79.04931 27787 ft 384 kts 331°
2026-05-05 07:38 25.23397 -79.06127 27367 ft 379 kts 331°
2026-05-05 07:39 25.25804 -79.07316 26943 ft 377 kts 331°
2026-05-05 07:39 25.28198 -79.08498 26527 ft 378 kts 331°
2026-05-05 07:39 25.30608 -79.09689 26106 ft 378 kts 331°
2026-05-05 07:39 25.32990 -79.10867 25692 ft 376 kts 330°
2026-05-05 07:40 25.35379 -79.12048 25273 ft 375 kts 330°
2026-05-05 07:40 25.37763 -79.13227 24859 ft 372 kts 330°
2026-05-05 07:40 25.40115 -79.14391 24448 ft 371 kts 330°
2026-05-05 07:40 25.42471 -79.15559 24038 ft 370 kts 329°
2026-05-05 07:41 25.44812 -79.16718 23628 ft 369 kts 329°
2026-05-05 07:41 25.47144 -79.17873 23227 ft 367 kts 329°
2026-05-05 07:41 25.49507 -79.19045 22817 ft 368 kts 329°
2026-05-05 07:41 25.51827 -79.20196 22411 ft 364 kts 329°
2026-05-05 07:42 25.54111 -79.21330 22017 ft 362 kts 329°
2026-05-05 07:42 25.56404 -79.22468 21614 ft 362 kts 329°
2026-05-05 07:42 25.58710 -79.23613 21211 ft 361 kts 329°
2026-05-05 07:42 25.61013 -79.24758 20811 ft 360 kts 329°
2026-05-05 07:43 25.63286 -79.25887 20416 ft 358 kts 329°
2026-05-05 07:43 25.65559 -79.27019 20017 ft 357 kts 329°
2026-05-05 07:43 25.67817 -79.28141 19619 ft 356 kts 329°
2026-05-05 07:43 25.69911 -79.29516 19220 ft 344 kts 312°
2026-05-05 07:44 25.71290 -79.31638 18850 ft 336 kts 295°
2026-05-05 07:44 25.72345 -79.33929 18468 ft 334 kts 294°
2026-05-05 07:44 25.73362 -79.36214 18090 ft 332 kts 293°
2026-05-05 07:44 25.74367 -79.38501 17724 ft 331 kts 293°
2026-05-05 07:45 25.75362 -79.40781 17362 ft 331 kts 293°
2026-05-05 07:45 25.76360 -79.43072 16994 ft 331 kts 293°
2026-05-05 07:45 25.77365 -79.45383 16623 ft 330 kts 293°
2026-05-05 07:45 25.78357 -79.47667 16259 ft 329 kts 293°
2026-05-05 07:46 25.79333 -79.49912 15901 ft 327 kts 293°
2026-05-05 07:46 25.80321 -79.52190 15537 ft 325 kts 293°
2026-05-05 07:46 25.81293 -79.54430 15181 ft 326 kts 293°
2026-05-05 07:46 25.82278 -79.56702 14821 ft 324 kts 293°
2026-05-05 07:47 25.83248 -79.58940 14461 ft 323 kts 293°
2026-05-05 07:47 25.84219 -79.61180 14100 ft 321 kts 293°
2026-05-05 07:47 25.85173 -79.63394 13759 ft 321 kts 292°
2026-05-05 07:47 25.86123 -79.65656 13409 ft 321 kts 292°
2026-05-05 07:48 25.87063 -79.67894 13062 ft 319 kts 292°
2026-05-05 07:48 25.87995 -79.70116 12714 ft 318 kts 292°
2026-05-05 07:48 25.88918 -79.72317 12364 ft 317 kts 292°
2026-05-05 07:48 25.89852 -79.74546 12011 ft 315 kts 292°
2026-05-05 07:49 25.90768 -79.76734 11665 ft 314 kts 292°
2026-05-05 07:49 25.91676 -79.78901 11318 ft 308 kts 292°
2026-05-05 07:49 25.92568 -79.81032 10979 ft 299 kts 292°
2026-05-05 07:49 25.93434 -79.83104 10649 ft 293 kts 292°
2026-05-05 07:50 25.94283 -79.85135 10329 ft 286 kts 292°
2026-05-05 07:50 25.95104 -79.87097 10017 ft 278 kts 292°
2026-05-05 07:50 25.95920 -79.89053 9712 ft 275 kts 292°
2026-05-05 07:50 25.96712 -79.90951 9416 ft 273 kts 292°
2026-05-05 07:51 25.97511 -79.92866 9114 ft 275 kts 292°
2026-05-05 07:51 25.98313 -79.94790 8811 ft 275 kts 292°
2026-05-05 07:51 25.99119 -79.96723 8505 ft 275 kts 292°
2026-05-05 07:51 25.99920 -79.98644 8203 ft 274 kts 292°
2026-05-05 07:52 26.00715 -80.00553 7907 ft 273 kts 292°
2026-05-05 07:52 26.01515 -80.02475 7606 ft 273 kts 293°
2026-05-05 07:52 26.02306 -80.04375 7308 ft 271 kts 293°
2026-05-05 07:52 26.03097 -80.06278 7008 ft 270 kts 293°
2026-05-05 07:53 26.03887 -80.08177 6718 ft 270 kts 293°
2026-05-05 07:53 26.04674 -80.10072 6442 ft 269 kts 293°
2026-05-05 07:53 26.05453 -80.11948 6150 ft 270 kts 294°
2026-05-05 07:53 26.06226 -80.13808 5848 ft 257 kts 294°
2026-05-05 07:54 26.06954 -80.15562 5565 ft 247 kts 294°
2026-05-05 07:54 26.07385 -80.17355 5302 ft 235 kts 272°
2026-05-05 07:54 26.07443 -80.19118 5055 ft 227 kts 271°
2026-05-05 07:54 26.07489 -80.20860 4807 ft 224 kts 271°
2026-05-05 07:55 26.07531 -80.22603 4568 ft 226 kts 271°
2026-05-05 07:55 26.07573 -80.24349 4324 ft 229 kts 271°
2026-05-05 07:55 26.07615 -80.26138 4069 ft 230 kts 271°
2026-05-05 07:55 26.07655 -80.27899 3814 ft 231 kts 271°
2026-05-05 07:56 26.07705 -80.29677 3556 ft 231 kts 278°
2026-05-05 07:56 26.08419 -80.31232 3329 ft 229 kts 321°
2026-05-05 07:56 26.09833 -80.32036 2970 ft 235 kts 335°
2026-05-05 07:56 26.11166 -80.33079 2786 ft 226 kts 320°
2026-05-05 07:57 26.12295 -80.34301 2792 ft 228 kts 314°
2026-05-05 07:57 26.13343 -80.35632 2797 ft 229 kts 311°
2026-05-05 07:57 26.14318 -80.36990 2822 ft 219 kts 309°
2026-05-05 07:57 26.15201 -80.38281 2836 ft 199 kts 308°
2026-05-05 07:58 26.15977 -80.39497 2821 ft 194 kts 297°
2026-05-05 07:58 26.16103 -80.40984 2871 ft 196 kts 251°
2026-05-05 07:58 26.15285 -80.42158 2939 ft 194 kts 210°
2026-05-05 07:58 26.14016 -80.42536 2998 ft 189 kts 171°
2026-05-05 07:59 26.12738 -80.42191 3064 ft 188 kts 162°
2026-05-05 07:59 26.11537 -80.41674 3087 ft 186 kts 147°
2026-05-05 07:59 26.10571 -80.40711 3098 ft 186 kts 116°
2026-05-05 07:59 26.10394 -80.39317 3147 ft 185 kts 91°
2026-05-05 08:00 26.09951 -80.38018 3077 ft 188 kts 134°
2026-05-05 08:00 26.08847 -80.37253 2919 ft 187 kts 142°
2026-05-05 08:00 26.08179 -80.36061 2746 ft 183 kts 98°
2026-05-05 08:00 26.08412 -80.34703 2600 ft 181 kts 71°
2026-05-05 08:01 26.08553 -80.33336 2429 ft 180 kts 92°
2026-05-05 08:01 26.08491 -80.31933 2231 ft 180 kts 96°
2026-05-05 08:01 26.08199 -80.30581 2016 ft 179 kts 110°
2026-05-05 08:01 26.07610 -80.29364 1836 ft 177 kts 118°
2026-05-05 08:02 26.07345 -80.28056 1829 ft 174 kts 88°
2026-05-05 08:02 26.07400 -80.26717 1831 ft 171 kts 85°
2026-05-05 08:02 26.07508 -80.25481 1777 ft 154 kts 86°
2026-05-05 08:02 26.07572 -80.24304 1635 ft 145 kts 85°
2026-05-05 08:03 26.07650 -80.23237 1553 ft 130 kts 84°
2026-05-05 08:03 26.07690 -80.22304 1312 ft 117 kts 88°
2026-05-05 08:03 26.07688 -80.21414 976 ft 116 kts 89°
2026-05-05 08:03 26.07670 -80.20534 702 ft 112 kts 86°
2026-05-05 08:04 26.07685 -80.19687 578 ft 110 kts 90°
2026-05-05 08:04 26.07683 -80.18814 448 ft 113 kts 85°
2026-05-05 08:04 26.07703 -80.17933 314 ft 114 kts 88°
2026-05-05 08:04 26.07698 -80.17043 184 ft 115 kts 88°
2026-05-05 08:05 26.07687 -80.16155 26 ft 113 kts 89°
2026-05-05 08:05 26.07692 -80.15396 10 ft 75 kts 92°
2026-05-05 08:05 26.07668 -80.14992 10 ft 34 kts 125°
2026-05-05 08:05 26.07579 -80.14842 10 ft 15 kts 124°
2026-05-05 08:06 26.07515 -80.14762 10 ft 13 kts 125°
2026-05-05 08:06 26.07454 -80.14710 10 ft 8 kts 192°
2026-05-05 08:06 26.07405 -80.14736 10 ft 2 kts 181°
2026-05-05 08:06 26.07397 -80.14735 10 ft 0 kts 167°